User: anonymous   Login
Location: Newark
(25.0000°N, 73.5000°E)
Time: 16:07:19
(UTC+00:00)
Language:

A-11 Canister half - Orbit

View from above orbital plane
View from above orbital plane
View from above satellite
View from above satellite

Ground track
Ground track

The orbit data is extracted from the following two-line orbital elements,

1    51U 60009C   21057.02115173  .00000027  00000-0  10776-2 0  9998
2    51  47.2119 282.9493 0104978 196.4704 163.2661 12.18271593694990
Epoch (UTC): 26 February 2021 00:30:27
Eccentricity: 0.0104978
inclination: 47.2119°
perigee height: 1516 km
apogee height: 1684 km
right ascension of ascending node: 282.9493°
argument of perigee: 196.4704°
revolutions per day: 12.18271593
mean anomaly at epoch: 163.2661°
orbit number at epoch: 69499

The dashed part of the orbit path shows where the satellite is in the earth's shadow,  

DLR